Location: Bottom School (historical)
(37.9078°N, 89.3593°W)
Time: 13:34:43
(UTC+00:00)

ITAMSAT 1 - Visible Passes

Search period start: 27 March 2023 00:00
Search period end: 06 April 2023 00:00
Orbit: 784 x 795 km, 98.8° (Epoch: 27 March)

Date Brightness Start Highest point End Pass type
(mag) Time Alt. Az. Time Alt. Az. Time Alt. Az.
27 Mar 8.3 00:56:16 10° SE 01:00:59 36° ENE 01:05:43 10° N visible
27 Mar 9.7 02:36:14 10° SSW 02:40:27 25° W 02:44:42 10° NW visible
28 Mar 8.5 02:05:38 10° S 02:10:38 48° W 02:15:42 10° NNW visible
29 Mar 7.6 01:35:46 10° SSE 01:40:57 87° ENE 01:46:13 10° NNW visible
30 Mar 8.0 01:06:29 10° SE 01:11:24 45° ENE 01:16:22 10° N visible
30 Mar 10.0 02:47:16 10° SW 02:51:01 20° W 02:54:48 10° NW visible
31 Mar 8.8 00:37:52 10° ESE 00:41:59 24° ENE 00:46:07 10° NNE visible
31 Mar 8.9 02:16:21 10° SSW 02:21:10 38° W 02:26:02 10° NNW visible
01 Apr 7.8 01:46:15 10° S 01:51:26 76° WSW 01:56:41 10° NNW visible
02 Apr 7.8 01:16:46 10° SSE 01:21:51 56° ENE 01:26:57 10° N visible
02 Apr 10.2 02:58:30 10° SW 03:01:36 16° W 03:04:44 10° NW visible
03 Apr 8.5 00:47:54 10° SE 00:52:22 30° ENE 00:56:52 10° N visible
03 Apr 9.3 02:27:09 10° SSW 02:31:42 31° W 02:36:18 10° NW visible
04 Apr 8.1 01:56:48 10° S 02:01:56 60° WSW 02:07:07 10° NNW visible
05 Apr 7.6 01:27:07 10° SSE 01:32:17 71° ENE 01:37:30 10° N visible
05 Apr 10.4 03:10:05 10° WSW 03:12:12 12° W 03:14:19 10° WNW visible
